Find Starlink 3546

NORAD ID: 51718 Int'l Des: 2022-016 Owner: SPXS Country: US Constellation: starlink operational
LEOCIRCULAR

Live Position

Loading 3D Globe...

About Starlink 3546

Description loading...

Upcoming Passes

Passes for default location (London). Set your location on the main map for personalized predictions.

Altitude History

Loading altitude history...

Two-Line Element Set

1 51718U 22016E 26124.15745272 .00029487 00000-0 14452-2 0 9999
2 51718 53.2143 74.4144 0005110 84.1724 275.9855 15.17918994233002
Epoch: May 4, 2026 • Age: 10 hours

Current Status

Altitude 511.3 km
Velocity 7.61 km/s
Sub-Earth Point 21.21°N, 164.27°E
Launch Date Feb 21, 2022
Age 4.1 years
Type internet

Technical Details

Classification Payload
Mass 297.00 kg
Dry Mass 275.00 kg
Total Mass 297.00 kg
Length 0.20 m
Diameter 2.80 m
Span 9.00 m
Shape Box + pan
Manufacturer SPXS
Bus Type Starlink
Phase Status In Orbit
Owner/State SPXS/US

Most Searched